Weather History for KOSC - January, 2014

Change the Weather History Date:

Sunday, January 12, 2014

  Actual Average Record
Temperature  
Mean Temperature 34 °F -  
Max Temperature 36 °F 25 °F 58 °F (2013)
Min Temperature 32 °F 11 °F 1 °F (1999)
Degree Days  
Heating Degree Days 31    
Moisture  
Dew Point 28 °F    
Average Humidity 76    
Maximum Humidity 88    
Minimum Humidity 67    
Precipitation  
Precipitation 0.00 in - - ()
Sea Level Pressure  
Sea Level Pressure 29.68 in    
Wind  
Wind Speed 13 mph (SW)    
Max Wind Speed 22 mph    
Max Gust Speed 32 mph    
Visibility 10 miles    
Events      
Averages and records for this station are not official NWS values.
T = Trace of Precipitation, MM = Missing Value Source: NWS Daily Summary

Daily Weather History Graph

Daily Weather History Graph

Search for Another Location

Airport or City:

Trip Planner

Search our weather history database for the weather conditions in past years. The results will help you decide how hot, cold, wet, or windy it might be!

Date:

Astronomy

Jan. 12, 2014 Rise Set
Actual Time 8:07 AM EST 5:16 PM EST
Civil Twilight 7:35 AM EST 5:48 PM EST
Nautical Twilight 6:59 AM EST 6:25 PM EST
Astronomical Twilight 6:24 AM EST 7:00 PM EST
Moon 2:44 PM EST (1/12) 5:04 AM EST (1/12)
Length of Visible Light 10h 13m
Length of Day
9h 08m
Waxing Gibbous, 89% of the Moon is Illuminated
Jan 12
Waxing Gibbous
Jan 15
Full
Jan 24
Last Quarter
Jan 30
New
Feb 6
First Quarter

Hourly Weather History & Observations

Time (EST) Temp. Windchill Dew Point Humidity Pressure Visibility Wind Dir Wind Speed Gust Speed Precip Events Conditions
12:13 AM 33.4 °F 23.1 °F 29.5 °F 85% 29.52 in 10.0 mi West 16.1 mph - N/A   Overcast
12:34 AM 33.4 °F 25.4 °F 29.8 °F 87% 29.53 in 10.0 mi West 10.4 mph - N/A   Overcast
12:53 AM 33.4 °F 24.8 °F 29.8 °F 87% 29.54 in 10.0 mi West 11.5 mph - N/A   Overcast
1:13 AM 33.3 °F 23.7 °F 30.0 °F 88% 29.55 in 10.0 mi WSW 13.8 mph - N/A   Overcast
1:34 AM 33.3 °F 23.7 °F 30.0 °F 88% 29.56 in 10.0 mi WSW 13.8 mph - N/A   Overcast
1:53 AM 33.3 °F 25.1 °F 30.0 °F 88% 29.56 in 10.0 mi WSW 10.4 mph - N/A   Overcast
2:13 AM 33.3 °F 24.1 °F 29.8 °F 87% 29.57 in 10.0 mi West 12.7 mph 17.3 mph N/A   Overcast
2:34 AM 33.6 °F 22.9 °F 29.1 °F 84% 29.58 in 10.0 mi West 17.3 mph 23.0 mph N/A   Overcast
2:53 AM 33.8 °F 23.2 °F 28.8 °F 82% 29.59 in 10.0 mi West 17.3 mph 26.5 mph N/A   Overcast
3:13 AM 33.8 °F 22.8 °F 28.2 °F 80% 29.60 in 10.0 mi West 18.4 mph 25.3 mph N/A   Overcast
3:34 AM 33.8 °F 24.8 °F 28.6 °F 81% 29.62 in 10.0 mi West 12.7 mph 19.6 mph N/A   Overcast
3:53 AM 33.4 °F 25.4 °F 29.3 °F 85% 29.62 in 10.0 mi West 10.4 mph - N/A   Overcast
4:14 AM 33.8 °F 25.8 °F 28.9 °F 82% 29.63 in 10.0 mi West 10.4 mph - N/A   Overcast
4:34 AM 33.8 °F 24.8 °F 28.9 °F 82% 29.64 in 10.0 mi West 12.7 mph - N/A   Overcast
4:53 AM 33.8 °F 26.4 °F 28.9 °F 82% 29.65 in 10.0 mi West 9.2 mph - N/A   Overcast
5:14 AM 34.0 °F 24.6 °F 27.5 °F 77% 29.65 in 10.0 mi WNW 13.8 mph - N/A   Overcast
5:34 AM 34.2 °F 24.8 °F 26.6 °F 74% 29.67 in 10.0 mi West 13.8 mph 21.9 mph N/A   Overcast
5:53 AM 34.0 °F 26.0 °F 27.0 °F 75% 29.68 in 10.0 mi West 10.4 mph 16.1 mph N/A   Overcast
6:14 AM 34.2 °F 25.2 °F 26.6 °F 74% 29.68 in 10.0 mi West 12.7 mph 20.7 mph N/A   Overcast
6:34 AM 34.0 °F 25.5 °F 26.2 °F 73% 29.68 in 10.0 mi West 11.5 mph 18.4 mph N/A   Overcast
6:53 AM 33.8 °F 27.0 °F 26.8 °F 75% 29.70 in 10.0 mi West 8.1 mph - N/A   Overcast
7:14 AM 33.6 °F 26.2 °F 27.1 °F 77% 29.70 in 10.0 mi WSW 9.2 mph - N/A   Overcast
7:34 AM 33.8 °F 25.3 °F 26.4 °F 74% 29.70 in 10.0 mi WSW 11.5 mph - N/A   Overcast
7:53 AM 33.8 °F 27.0 °F 27.0 °F 76% 29.70 in 10.0 mi West 8.1 mph - N/A   Overcast
8:14 AM 34.0 °F 25.5 °F 25.9 °F 72% 29.71 in 10.0 mi West 11.5 mph 18.4 mph N/A   Overcast
8:34 AM 33.8 °F 26.4 °F 26.6 °F 75% 29.72 in 10.0 mi West 9.2 mph - N/A   Overcast
8:53 AM 32.9 °F 25.9 °F 27.9 °F 82% 29.75 in 10.0 mi WSW 8.1 mph - N/A   Overcast
9:14 AM 33.8 °F 26.4 °F 27.3 °F 77% 29.75 in 10.0 mi WSW 9.2 mph - N/A   Overcast
9:34 AM 33.8 °F 25.8 °F 27.7 °F 78% 29.76 in 10.0 mi WSW 10.4 mph - N/A   Overcast
9:53 AM 34.3 °F 25.9 °F 27.3 °F 76% 29.77 in 10.0 mi WSW 11.5 mph - N/A   Overcast
10:14 AM 34.5 °F 25.7 °F 27.5 °F 76% 29.78 in 10.0 mi WSW 12.7 mph - N/A   Overcast
10:34 AM 34.3 °F 25.5 °F 27.5 °F 76% 29.78 in 10.0 mi WSW 12.7 mph - N/A   Overcast
10:53 AM 34.5 °F 24.1 °F 27.5 °F 76% 29.79 in 10.0 mi WSW 17.3 mph - N/A   Mostly Cloudy
11:14 AM 34.5 °F 25.7 °F 27.7 °F 76% 29.78 in 10.0 mi WSW 12.7 mph - N/A   Scattered Clouds
11:34 AM 35.8 °F 26.1 °F 27.5 °F 72% 29.78 in 10.0 mi SW 16.1 mph - N/A   Scattered Clouds
11:53 AM 36.5 °F 27.0 °F 27.7 °F 70% 29.76 in 10.0 mi SW 16.1 mph 20.7 mph N/A   Clear
12:14 PM 36.5 °F 27.4 °F 27.7 °F 70% 29.77 in 10.0 mi SW 15.0 mph 21.9 mph N/A   Clear
12:34 PM 36.7 °F 28.4 °F 27.7 °F 70% 29.75 in 10.0 mi SSW 12.7 mph 19.6 mph N/A   Clear
12:53 PM 36.7 °F 28.9 °F 27.7 °F 70% 29.75 in 10.0 mi SSW 11.5 mph - N/A   Clear
1:14 PM 36.7 °F 28.9 °F 27.7 °F 70% 29.74 in 10.0 mi SSW 11.5 mph - N/A   Clear
1:33 PM 36.9 °F 28.2 °F 27.5 °F 69% 29.74 in 10.0 mi SSW 13.8 mph - N/A   Clear
1:53 PM 36.5 °F 27.8 °F 27.9 °F 71% 29.73 in 10.0 mi SSW 13.8 mph - N/A   Mostly Cloudy
2:14 PM 35.8 °F 27.8 °F 28.4 °F 75% 29.73 in 10.0 mi SSW 11.5 mph - N/A   Overcast
2:33 PM 36.1 °F 26.9 °F 28.2 °F 73% 29.73 in 10.0 mi SSW 15.0 mph 19.6 mph N/A   Overcast
2:53 PM 36.0 °F 29.0 °F 28.6 °F 75% 29.73 in 10.0 mi SSW 9.2 mph - N/A   Mostly Cloudy
3:14 PM 35.4 °F 26.4 °F 29.3 °F 78% 29.72 in 10.0 mi SSW 13.8 mph 18.4 mph N/A   Clear
3:34 PM 36.0 °F 27.1 °F 29.5 °F 77% 29.72 in 10.0 mi SSW 13.8 mph - N/A   Clear
3:53 PM 36.0 °F 26.7 °F 29.5 °F 77% 29.72 in 10.0 mi SSW 15.0 mph 19.6 mph N/A   Scattered Clouds
4:14 PM 35.8 °F 25.4 °F 29.1 °F 77% 29.71 in 10.0 mi SSW 18.4 mph - N/A   Scattered Clouds
4:34 PM 35.8 °F 27.3 °F 28.4 °F 75% 29.71 in 10.0 mi South 12.7 mph 19.6 mph N/A   Scattered Clouds
4:53 PM 35.2 °F 25.8 °F 28.8 °F 77% 29.70 in 10.0 mi SSW 15.0 mph 20.7 mph N/A   Mostly Cloudy
5:14 PM 34.7 °F 25.9 °F 28.9 °F 79% 29.70 in 10.0 mi South 12.7 mph 21.9 mph N/A   Scattered Clouds
5:33 PM 34.7 °F 24.7 °F 29.1 °F 80% 29.70 in 10.0 mi South 16.1 mph 23.0 mph N/A   Clear
5:54 PM 34.3 °F 25.5 °F 28.4 °F 79% 29.69 in 10.0 mi South 12.7 mph 17.3 mph N/A   Clear
6:13 PM 35.6 °F 27.5 °F 27.9 °F 73% 29.68 in 10.0 mi South 11.5 mph 20.7 mph N/A   Clear
6:33 PM 35.6 °F 28.0 °F 28.0 °F 74% 29.67 in 10.0 mi South 10.4 mph 17.3 mph N/A   Clear
6:54 PM 35.2 °F 27.1 °F 28.2 °F 76% 29.65 in 10.0 mi South 11.5 mph 18.4 mph N/A   Clear
7:14 PM 35.1 °F 27.9 °F 28.4 °F 77% 29.65 in 10.0 mi South 9.2 mph - N/A   Clear
7:33 PM 35.6 °F 27.5 °F 28.4 °F 75% 29.64 in 10.0 mi SSW 11.5 mph 18.4 mph N/A   Clear
7:54 PM 36.0 °F 24.7 °F 28.0 °F 73% 29.65 in 10.0 mi SSW 21.9 mph 29.9 mph N/A   Clear
8:13 PM 36.5 °F 26.0 °F 27.5 °F 70% 29.65 in 10.0 mi SSW 19.6 mph 32.2 mph N/A   Clear
8:33 PM 36.5 °F 26.0 °F 26.6 °F 67% 29.65 in 10.0 mi SSW 19.6 mph 26.5 mph N/A   Clear
8:54 PM 36.1 °F 26.2 °F 26.6 °F 68% 29.65 in 10.0 mi SSW 17.3 mph 25.3 mph N/A   Clear
9:14 PM 35.6 °F 26.2 °F 26.6 °F 70% 29.65 in 10.0 mi SSW 15.0 mph 24.2 mph N/A   Clear
9:33 PM 35.1 °F 25.9 °F 26.6 °F 71% 29.65 in 10.0 mi SSW 13.8 mph 20.7 mph N/A   Clear
9:54 PM 35.2 °F 25.8 °F 26.6 °F 71% 29.65 in 10.0 mi SSW 15.0 mph 20.7 mph N/A   Clear
10:13 PM 35.1 °F 25.2 °F 26.6 °F 71% 29.65 in 10.0 mi SSW 16.1 mph - N/A   Clear
10:34 PM 34.9 °F 24.9 °F 26.6 °F 72% 29.65 in 10.0 mi SSW 16.1 mph 23.0 mph N/A   Clear
10:54 PM 34.9 °F 26.2 °F 27.0 °F 73% 29.65 in 10.0 mi SSW 12.7 mph 20.7 mph N/A   Clear
11:13 PM 34.7 °F 25.1 °F 27.1 °F 74% 29.64 in 10.0 mi SSW 15.0 mph 21.9 mph N/A   Clear
11:34 PM 34.7 °F 26.4 °F 27.5 °F 75% 29.64 in 10.0 mi SSW 11.5 mph 20.7 mph N/A   Clear
11:54 PM 34.7 °F 25.9 °F 27.9 °F 76% 29.64 in 10.0 mi SSW 12.7 mph 17.3 mph N/A   Clear